sat.trackr.live / text

‹ back to catalog

STARLINK-31745

NORAD 60329 · 2024-136A

PAYLOAD ACTIVE UNKNOWN

§ Identity

Operator
Country
US
Launch date
2024-08-02
Launch site
AFETR
Launch vehicle
Mass (kg)
RCS (m²)

Purposes: comms

External: N2YO · Heavens-Above · Gunter

§ Orbital elements

Epoch: 2026-05-25T02:26:10.978080Z

Period
94.01 min
Inclination
53.1607°
Eccentricity
0.0001293
Mean motion
15.31704922 rev/d
Perigee alt
469.8 km
Apogee alt
471.6 km
Semi-major
6,848.9 km
B*
3.9572e-5
RAAN
80.7384°
Arg perigee
82.2309°
Mean anomaly
277.8839°
Rev number
10,257

§ Raw data

STARLINK-317451 60329U 24136A   26145.10151595  .00000863  00000+0  39572-4 0  99972 60329  53.1607  80.7384 0001293  82.2309 277.8839 15.31704922102576

JSON: /api/v1/satellites/60329 · /tle

For live sub-satellite position, see the globe view (requires WebGL).

§ Visibility from observer

Set your observer location to see the next 7 days of passes ≥ 10°. The values pass through the URL so the page stays shareable.

No JS? Fill the form by hand. The geolocation button needs JavaScript.